Regional Weather Roundup
Issued by NWS

Home | Current Version | Previous Version | Graphics & Text | Print | Product List | Glossary On
Versions: 1 2 3 4 5 6 7 8 9 10 11 12 13 14 15 16 17 18 19 20 21 22 23 24 25 26 27 28 29 30 31 32 33 34 35 36 37 38 39 40 41 42 43 44 45 46 47 48 49 50
000
ASUS43 KLSX 201857
RWRMO

WEATHER SUMMARY FOR MISSOURI
NATIONAL WEATHER SERVICE SPRINGFIELD MO
200 PM CDT SUN AUG 20 2017

NOTE: "FAIR" INDICATES FEW OR NO CLOUDS BELOW 12,000 FEET WITH NO
       SIGNIFICANT WEATHER AND/OR OBSTRUCTIONS TO VISIBILITY.
       CURRENT SKY AND/OR WEATHER CONDITIONS ARE NOT AVAILABLE FOR
       CHILLICOTHE AND FARMINGTON.

MOZ001>031-035>038-043-044-053-054-202000-
...NORTHERN AND WESTERN MISSOURI...

CITY           SKY/WX    TMP DP  RH WIND       PRES   REMARKS
KANSAS CTY INT MOSUNNY   85  70  60 SE9       30.01R
LEE`S SUMMIT   SUNNY     86  72  62 SE14      30.00F HX  92
ST JOSEPH      CLOUDY    84  69  60 E15G23    30.01S
CHILLICOTHE      N/A     81  70  69 VRB3      30.04R

$$
MOZ066>068-077>081-088>096-101>105-202000-
...SOUTHWEST MISSOURI...

CITY           SKY/WX    TMP DP  RH WIND       PRES   REMARKS
SPRINGFIELD    MOSUNNY   88  74  63 SE8       30.03F HX  96
JOPLIN         SUNNY     94  75  54 SW10      30.00F HX 105
BRANSON        PTSUNNY   91  73  55 SW6       30.06F HX 100

$$
MOZ032>034-039>042-045>050-055>058-069>072-202000-
...CENTRAL MISSOURI...

CITY           SKY/WX    TMP DP  RH WIND       PRES   REMARKS
COLUMBIA       NOT AVBL
JEFFERSON CITY SUNNY     86  69  56 S10       29.99F HX  90
ROLLA          SUNNY     85  71  63 SE7       30.05F HX  90
SEDALIA        SUNNY     87  73  62 SE13      30.02F HX  94
WARRENSBURG    SUNNY     84  70  61 SE13G20   30.00F

$$
MOZ051-052-059>065-202000-
...EAST CENTRAL MISSOURI...

CITY           SKY/WX    TMP DP  RH WIND       PRES   REMARKS
ST LOUIS INTL  CLOUDY    88  65  46 E10       30.01F HX  90

$$
MOZ072>076-082>087-097>100-106>115-202000-
...SOUTH CENTRAL AND SOUTHEAST MISSOURI...

CITY           SKY/WX    TMP DP  RH WIND       PRES   REMARKS
CAPE GIRARDEAU CLOUDY    90  74  59 SW5       30.03S HX  99
FARMINGTON     TSTM      73  72  94 SW8       30.08F
POPLAR BLUFF   MOSUNNY   90  78  68 CALM      30.02S HX 104
WEST PLAINS    MOSUNNY   82  69  64 CALM      30.09F

$$



USA.gov is the U.S. government's official web portal to all federal, state and local government web resources and services.